Anderson, SC

1:44 AM EDT on August 21, 2017 (GMT -0400)
Anderson Regional

Weather History for KAND - December, 2012

Change the Weather History Date:

Thursday, December 27, 2012

  Actual Average Record
Temperature  
Mean Temperature 42 °F -  
Max Temperature 51 °F 53 °F 74 °F (1971)
Min Temperature 34 °F 33 °F 19 °F (1948)
Degree Days  
Heating Degree Days 22    
Moisture  
Dew Point 31 °F    
Average Humidity 71    
Maximum Humidity 92    
Minimum Humidity 46    
Precipitation  
Precipitation 0.00 in - - ()
Sea Level Pressure  
Sea Level Pressure 29.96 in    
Wind  
Wind Speed 8 mph (WSW)    
Max Wind Speed 13 mph    
Max Gust Speed 21 mph    
Visibility 10 miles    
Events Snow    
Averages and records for this station are not official NWS values.
T = Trace of Precipitation, MM = Missing Value Source: NWS Daily Summary

Daily Weather History Graph

Daily Weather History Graph

Search for Another Location

Airport or City:

Trip Planner

Search our weather history database for the weather conditions in past years. The results will help you decide how hot, cold, wet, or windy it might be!

Date:

Astronomy

Dec. 27, 2012 Rise Set
Actual Time 7:36 AM EST 5:28 PM EST
Civil Twilight 7:08 AM EST 5:56 PM EST
Nautical Twilight 6:36 AM EST 6:27 PM EST
Astronomical Twilight 6:06 AM EST 6:58 PM EST
Moon 5:08 PM EST (12/27) 6:47 AM EST (12/27)
Length of Visible Light 10h 47m
Length of Day
9h 51m
Full, 100% of the Moon is Illuminated
Dec 27
Full
Dec 28
Full
Jan 4
Last Quarter
Jan 11
New
Jan 18
First Quarter

Hourly Weather History & Observations

Time (EST) Temp. Windchill Dew Point Humidity Pressure Visibility Wind Dir Wind Speed Gust Speed Precip Events Conditions
12:56 AM 37.0 °F 30.4 °F 28.9 °F 73% 29.83 in 9.0 mi WSW 9.2 mph 18.4 mph 0.00 in Snow Light Snow
1:56 AM 37.0 °F 28.9 °F 28.0 °F 70% 29.83 in 9.0 mi West 12.7 mph - 0.00 in Snow Light Snow
2:56 AM 37.0 °F 29.3 °F 28.9 °F 73% 29.85 in 9.0 mi West 11.5 mph 20.7 mph 0.00 in Snow Light Snow
3:56 AM 36.0 °F 29.0 °F 28.9 °F 76% 29.85 in 9.0 mi WSW 9.2 mph - 0.00 in Snow Light Snow
4:56 AM 35.1 °F 26.9 °F 28.9 °F 78% 29.86 in 9.0 mi WSW 11.5 mph - 0.00 in Snow Light Snow
5:56 AM 35.1 °F 27.4 °F 28.9 °F 78% 29.89 in 9.0 mi WSW 10.4 mph - 0.00 in Snow Light Snow
6:56 AM 35.1 °F 27.9 °F 28.9 °F 78% 29.91 in 9.0 mi West 9.2 mph - 0.00 in Snow Light Snow
7:56 AM 34.0 °F 28.0 °F 28.9 °F 82% 29.93 in 10.0 mi WSW 6.9 mph - 0.00 in   Clear
8:56 AM 37.9 °F 32.7 °F 30.9 °F 76% 29.95 in 9.0 mi WSW 6.9 mph - 0.00 in Snow Light Snow
9:56 AM 42.1 °F 37.1 °F 30.9 °F 65% 29.99 in 10.0 mi SW 8.1 mph - 0.00 in   Clear
10:56 AM 44.1 °F 39.5 °F 30.9 °F 60% 30.00 in 10.0 mi WSW 8.1 mph - N/A   Clear
11:56 AM 46.0 °F 41.9 °F 30.9 °F 56% 30.01 in 10.0 mi West 8.1 mph - N/A   Clear
12:56 PM 48.0 °F - 30.0 °F 50% 29.98 in 10.0 mi WSW 5.8 mph - N/A   Clear
3:56 PM 51.1 °F - 30.9 °F 46% 29.99 in 10.0 mi SW 4.6 mph - N/A   Clear
4:56 PM 50.0 °F - 30.9 °F 48% 30.00 in 10.0 mi West 3.5 mph - N/A   Clear
5:56 PM 46.0 °F - 33.1 °F 61% 30.01 in 10.0 mi Calm Calm - N/A   Clear
6:56 PM 43.0 °F 41.3 °F 34.0 °F 71% 30.03 in 10.0 mi SSW 3.5 mph - N/A   Clear
7:56 PM 41.0 °F - 34.0 °F 76% 30.04 in 10.0 mi Calm Calm - N/A   Clear
8:56 PM 39.9 °F - 33.1 °F 77% 30.04 in 10.0 mi Calm Calm - N/A   Clear
9:56 PM 37.9 °F - 33.1 °F 83% 30.06 in 10.0 mi Calm Calm - N/A   Clear
10:56 PM 36.0 °F 33.3 °F 32.0 °F 86% 30.06 in 10.0 mi ENE 3.5 mph - N/A   Clear
11:56 PM 34.0 °F - 32.0 °F 92% 30.07 in 10.0 mi Calm Calm - N/A   Clear